Location: Baix
(44.7118°N, 4.7648°E)
Time: 11:58:34
(UTC+00:00)

Vanguard 2 Rocket - Pass Details

Date: 01 December 2020
Orbit: 554 x 3325 km, 32.9° (Epoch: 23 January)

Event Time Altitude Azimuth Distance (km) Brightness Sun altitude
Rises 11:00:40 0° 271° (W) 7,302 11.4 23.0°
Reaches altitude 10° 11:06:06 10° 266° (W) 6,171 11.2 23.2°
Maximum altitude 11:23:06 45° 203° (SSW) 3,202 10.9 23.4°
Drops below altitude 10° 11:34:17 10° 136° (SE) 4,148 11.0 23.4°
Sets 11:37:10 0° 129° (SE) 4,813 11.1 23.4°
